OKEAN 1

Satellite information

Favourite Embed

Satellite Type and Status

PAYLOADIN ORBIT

Key statistics

Satellite OKEAN 1 at a glance.

Uptime

13576

Days in orbit

Revolutions

≈ 15.3

Per day

Orbit

LEO

Low Earth Orbit

Inclination

82.5

Latest

Satellite identification and parameters

Extended collection of information and parameters for OKEAN 1.

Object identification

Identified? True

Debris? False

Object name: OKEAN 1

International designator: 1988-056A

Object number (NORAD): 19274

Object ID (CCSDS): 19274

Country: COMMONWEALTH OF INDEPENDENT STATES (CIS)

Current information (Y/N): Y

RCS size: LARGE

Orbital parameters

Period: 94.302 minutes

Inclination: 82.4695 deg

SMA: 6862.874 km

Apoapsis: 495.29 km

Periapsis: 474.189 km

RAAN: 91.9299 deg

Eccentricy: 0.00153736

Argument of periapsis: 111.4867 deg

Mean anomaly: 248.8012 deg

Mean motion: 15.2701633 rev/day

Mean motion (dot): 0.00011305 rev/day2

B* drag term: 0.0004236991 1/REarth

Two-line elements (TLE)

Creation date: Sept. 4, 2025, 10:13 a.m.

Reference frame: TEME

Reference center: EARTH

Epoch: Sept. 4, 2025, 12:38 a.m. UTC

TLE line 0: 0 OKEAN 1

TLE line 1: 1 19274U 88056A 25247.02667536 .00011305 00000-0 42370-3 0 9994

TLE line 2: 2 19274 82.4695 91.9299 0015374 111.4867 248.8012 15.27016330 6555

Live tracking on map

Real-time ground track for satellite OKEAN 1.

In-orbit conjunctions

There are no conjunctions computed for OKEAN 1, at the moment. Check back to stay up to date, as we update our databases every day.

Go to all conjunctions

Associated space launch

Ocean observation satellite

OKEAN 1 was lifted into orbit during the mission ‘Tsiklon-3 | Okean-O1 3’, on board a Tsiklon-3 space rocket.

The launch took place on July 5, 1988, 9:45 a.m. from 32/1.

For more information about the launch, click the button.

Launch to space Tsiklon-3 | Okean-O1 3
Tsiklon-3 | Okean-O1 3

Agency: N/A

Status: Launch Successful

Launch date: July 5, 1988, 9:45 a.m. UTC

Rocket: Tsiklon-3

Launch pad: 32/1

Location: Plesetsk Cosmodrome, Russian Federation

...

Latest news about this satellite

There are no fresh news available about this satellite. Check back as we update our databases every day.


Newsletter sign-up

Weekly statistics, charts and insights to help you stay on top of the space industry.